Location: Arbon
(43.0005°N, 0.7472°E)
Time: 12:19:32
(UTC+00:00)

Vanguard 1 - Pass Details

Date: 28 November 2020
Orbit: 648 x 3834 km, 34.3° (Epoch: 23 January)

Event Time Altitude Azimuth Distance (km) Brightness Sun altitude
Rises 10:33:24 0° 274° (W) 5,096 13.5 23.5°
Reaches altitude 10° 10:36:35 10° 265° (W) 4,475 13.4 23.7°
Maximum altitude 10:48:11 36° 205° (SSW) 3,911 14.1 24.3°
Drops below altitude 10° 11:05:57 10° 149° (SSE) 6,754 15.7 24.9°
Sets 11:12:21 0° 142° (SE) 7,939 15.6 25.1°
